Year,Month,Day,Hour,Minute,Value (Times are PST for temperature in C)
2015,06,17,00,00,14.00
2015,06,17,00,01,14.00
2015,06,17,00,02,13.90
2015,06,17,00,03,13.90
2015,06,17,00,04,13.90
2015,06,17,00,05,13.90
2015,06,17,00,06,13.90
2015,06,17,00,07,13.90
2015,06,17,00,08,13.90
2015,06,17,00,09,13.90
2015,06,17,00,10,13.90
2015,06,17,00,11,13.80
2015,06,17,00,12,13.80
2015,06,17,00,13,13.80
2015,06,17,00,14,13.80
2015,06,17,00,15,13.80
2015,06,17,00,16,13.80
2015,06,17,00,17,13.80
2015,06,17,00,18,13.80
2015,06,17,00,19,13.80
2015,06,17,00,20,13.80
2015,06,17,00,21,13.80
2015,06,17,00,22,13.80
2015,06,17,00,23,13.70
2015,06,17,00,24,13.70
2015,06,17,00,25,13.70
2015,06,17,00,26,13.70
2015,06,17,00,27,13.70
2015,06,17,00,28,13.70
2015,06,17,00,29,13.70
2015,06,17,00,30,13.70
2015,06,17,00,31,13.70
2015,06,17,00,32,13.70
2015,06,17,00,33,13.70
2015,06,17,00,34,13.70
2015,06,17,00,35,13.70
2015,06,17,00,36,13.70
2015,06,17,00,37,13.70
2015,06,17,00,38,13.70
2015,06,17,00,39,13.70
2015,06,17,00,40,13.70
2015,06,17,00,41,13.70
2015,06,17,00,42,13.70
2015,06,17,00,43,13.70
2015,06,17,00,44,13.70
2015,06,17,00,45,13.70
2015,06,17,00,46,13.70
2015,06,17,00,47,13.70
2015,06,17,00,48,13.70
2015,06,17,00,49,13.70
2015,06,17,00,50,13.70
2015,06,17,00,51,13.70
2015,06,17,00,52,13.70
2015,06,17,00,53,13.70
2015,06,17,00,54,13.70
2015,06,17,00,55,13.70
2015,06,17,00,56,13.70
2015,06,17,00,57,13.70
2015,06,17,00,58,13.70
2015,06,17,00,59,13.70
2015,06,17,01,00,13.70
2015,06,17,01,01,13.70
2015,06,17,01,02,13.70
2015,06,17,01,03,13.70
2015,06,17,01,04,13.70
2015,06,17,01,05,13.70
2015,06,17,01,06,13.70
2015,06,17,01,07,13.70
2015,06,17,01,08,13.70
2015,06,17,01,09,13.70
2015,06,17,01,10,13.70
2015,06,17,01,11,13.70
2015,06,17,01,12,13.70
2015,06,17,01,13,13.70
2015,06,17,01,14,13.70
2015,06,17,01,15,13.70
2015,06,17,01,16,13.70
2015,06,17,01,17,13.70
2015,06,17,01,18,13.70
2015,06,17,01,19,13.60
2015,06,17,01,20,13.60
2015,06,17,01,21,13.60
2015,06,17,01,22,13.60
2015,06,17,01,23,13.60
2015,06,17,01,24,13.60
2015,06,17,01,25,13.60
2015,06,17,01,26,13.60
2015,06,17,01,27,13.60
2015,06,17,01,28,13.60
2015,06,17,01,29,13.60
2015,06,17,01,30,13.60
2015,06,17,01,31,13.50
2015,06,17,01,32,13.50
2015,06,17,01,33,13.50
2015,06,17,01,34,13.50
2015,06,17,01,35,13.40
2015,06,17,01,36,13.40
2015,06,17,01,37,13.40
2015,06,17,01,38,13.40
2015,06,17,01,39,13.40
2015,06,17,01,40,13.40
2015,06,17,01,41,13.40
2015,06,17,01,42,13.40
2015,06,17,01,43,13.40
2015,06,17,01,44,13.30
2015,06,17,01,45,13.30
2015,06,17,01,46,13.30
2015,06,17,01,47,13.30
2015,06,17,01,48,13.30
2015,06,17,01,49,13.30
2015,06,17,01,50,13.30
2015,06,17,01,51,13.30
2015,06,17,01,52,13.30
2015,06,17,01,53,13.20
2015,06,17,01,54,13.20
2015,06,17,01,55,13.20
2015,06,17,01,56,13.20
2015,06,17,01,57,13.20
2015,06,17,01,58,13.20
2015,06,17,01,59,13.20
2015,06,17,02,00,13.10
2015,06,17,02,01,13.10
2015,06,17,02,02,13.10
2015,06,17,02,03,13.10
2015,06,17,02,04,13.10
2015,06,17,02,05,13.10
2015,06,17,02,06,13.10
2015,06,17,02,07,13.10
2015,06,17,02,08,13.00
2015,06,17,02,09,13.00
2015,06,17,02,10,13.00
2015,06,17,02,11,13.00
2015,06,17,02,12,13.00
2015,06,17,02,13,12.90
2015,06,17,02,14,12.90
2015,06,17,02,15,12.90
2015,06,17,02,16,12.90
2015,06,17,02,17,12.90
2015,06,17,02,18,12.90
2015,06,17,02,19,12.90
2015,06,17,02,20,12.90
2015,06,17,02,21,12.80
2015,06,17,02,22,12.80
2015,06,17,02,23,12.80
2015,06,17,02,24,12.80
2015,06,17,02,25,12.80
2015,06,17,02,26,12.80
2015,06,17,02,27,12.70
2015,06,17,02,28,12.70
2015,06,17,02,29,12.70
2015,06,17,02,30,12.70
2015,06,17,02,31,12.70
2015,06,17,02,32,12.70
2015,06,17,02,33,12.60
2015,06,17,02,34,12.60
2015,06,17,02,35,12.60
2015,06,17,02,36,12.60
2015,06,17,02,37,12.60
2015,06,17,02,38,12.50
2015,06,17,02,39,12.50
2015,06,17,02,40,12.50
2015,06,17,02,41,12.50
2015,06,17,02,42,12.40
2015,06,17,02,43,12.40
2015,06,17,02,44,12.40
2015,06,17,02,45,12.40
2015,06,17,02,46,12.30
2015,06,17,02,47,12.30
2015,06,17,02,48,12.30
2015,06,17,02,49,12.20
2015,06,17,02,50,12.20
2015,06,17,02,51,12.20
2015,06,17,02,52,12.10
2015,06,17,02,53,12.10
2015,06,17,02,54,12.10
2015,06,17,02,55,12.00
2015,06,17,02,56,12.00
2015,06,17,02,57,11.90
2015,06,17,02,58,11.90
2015,06,17,02,59,11.90
2015,06,17,03,00,11.90
2015,06,17,03,01,11.90
2015,06,17,03,02,11.80
2015,06,17,03,03,11.80
2015,06,17,03,06,11.80
2015,06,17,03,07,11.80
2015,06,17,03,08,11.80
2015,06,17,03,09,11.80
2015,06,17,03,10,11.80
2015,06,17,03,11,11.80
2015,06,17,03,12,11.80
2015,06,17,03,13,11.70
2015,06,17,03,14,11.70
2015,06,17,03,15,11.70
2015,06,17,03,16,11.70
2015,06,17,03,17,11.70
2015,06,17,03,18,11.70
2015,06,17,03,19,11.60
2015,06,17,03,20,11.60
2015,06,17,03,21,11.60
2015,06,17,03,22,11.60
2015,06,17,03,23,11.60
2015,06,17,03,24,11.60
2015,06,17,03,25,11.50
2015,06,17,03,26,11.50
2015,06,17,03,27,11.50
2015,06,17,03,28,11.50
2015,06,17,03,29,11.50
2015,06,17,03,30,11.40
2015,06,17,03,31,11.40
2015,06,17,03,32,11.40
2015,06,17,03,33,11.40
2015,06,17,03,34,11.40
2015,06,17,03,35,11.30
2015,06,17,03,36,11.30
2015,06,17,03,37,11.30
2015,06,17,03,38,11.30
2015,06,17,03,39,11.30
2015,06,17,03,40,11.30
2015,06,17,03,41,11.30
2015,06,17,03,42,11.30
2015,06,17,03,43,11.30
2015,06,17,03,44,11.30
2015,06,17,03,45,11.30
2015,06,17,03,46,11.30
2015,06,17,03,47,11.30
2015,06,17,03,48,11.30
2015,06,17,03,49,11.20
2015,06,17,03,50,11.20
2015,06,17,03,51,11.20
2015,06,17,03,52,11.20
2015,06,17,03,53,11.20
2015,06,17,03,54,11.20
2015,06,17,03,55,11.20
2015,06,17,03,56,11.10
2015,06,17,03,57,11.10
2015,06,17,03,58,11.10
2015,06,17,03,59,11.10
2015,06,17,04,00,11.10
2015,06,17,04,01,11.10
2015,06,17,04,02,11.10
2015,06,17,04,03,11.10
2015,06,17,04,04,11.10
2015,06,17,04,05,11.10
2015,06,17,04,06,11.10
2015,06,17,04,07,11.10
2015,06,17,04,08,11.10
2015,06,17,04,09,11.10
2015,06,17,04,10,11.10
2015,06,17,04,11,11.10
2015,06,17,04,12,11.10
2015,06,17,04,13,11.10
2015,06,17,04,14,11.00
2015,06,17,04,15,11.00
2015,06,17,04,16,11.00
2015,06,17,04,17,11.00
2015,06,17,04,18,11.00
2015,06,17,04,19,10.90
2015,06,17,04,20,10.90
2015,06,17,04,21,10.90
2015,06,17,04,22,10.90
2015,06,17,04,23,10.90
2015,06,17,04,24,10.90
2015,06,17,04,25,10.90
2015,06,17,04,26,10.90
2015,06,17,04,27,10.90
2015,06,17,04,28,10.90
2015,06,17,04,29,10.90
2015,06,17,04,30,10.90
2015,06,17,04,31,10.80
2015,06,17,04,32,10.80
2015,06,17,04,33,10.80
2015,06,17,04,34,10.80
2015,06,17,04,35,10.80
2015,06,17,04,36,10.80
2015,06,17,04,37,10.80
2015,06,17,04,38,10.80
2015,06,17,04,39,10.80
2015,06,17,04,40,10.80
2015,06,17,04,41,10.80
2015,06,17,04,42,10.80
2015,06,17,04,43,10.80
2015,06,17,04,44,10.80
2015,06,17,04,45,10.80
2015,06,17,04,46,10.80
2015,06,17,04,47,10.70
2015,06,17,04,48,10.70
2015,06,17,04,49,10.70
2015,06,17,04,50,10.70
2015,06,17,04,51,10.70
2015,06,17,04,52,10.70
2015,06,17,04,53,10.70
2015,06,17,04,54,10.70
2015,06,17,04,55,10.70
2015,06,17,04,56,10.70
2015,06,17,04,57,10.70
2015,06,17,04,58,10.70
2015,06,17,04,59,10.70
2015,06,17,05,00,10.70
2015,06,17,05,01,10.70
2015,06,17,05,02,10.70
2015,06,17,05,03,10.70
2015,06,17,05,04,10.70
2015,06,17,05,05,10.60
2015,06,17,05,06,10.60
2015,06,17,05,07,10.60
2015,06,17,05,08,10.60
2015,06,17,05,09,10.60
2015,06,17,05,10,10.60
2015,06,17,05,11,10.60
2015,06,17,05,12,10.60
2015,06,17,05,13,10.60
2015,06,17,05,14,10.60
2015,06,17,05,15,10.60
2015,06,17,05,16,10.60
2015,06,17,05,17,10.60
2015,06,17,05,18,10.60
2015,06,17,05,19,10.60
2015,06,17,05,20,10.60
2015,06,17,05,21,10.60
2015,06,17,05,22,10.60
2015,06,17,05,23,10.60
2015,06,17,05,24,10.60
2015,06,17,05,25,10.60
2015,06,17,05,26,10.60
2015,06,17,05,27,10.60
2015,06,17,05,28,10.60
2015,06,17,05,29,10.60
2015,06,17,05,30,10.60
2015,06,17,05,31,10.60
2015,06,17,05,32,10.60
2015,06,17,05,33,10.60
2015,06,17,05,34,10.60
2015,06,17,05,35,10.60
2015,06,17,05,36,10.50
2015,06,17,05,37,10.50
2015,06,17,05,38,10.50
2015,06,17,05,39,10.50
2015,06,17,05,40,10.50
2015,06,17,05,41,10.50
2015,06,17,05,42,10.50
2015,06,17,05,43,10.50
2015,06,17,05,44,10.50
2015,06,17,05,45,10.50
2015,06,17,05,46,10.60
2015,06,17,05,47,10.60
2015,06,17,05,48,10.60
2015,06,17,05,49,10.60
2015,06,17,05,50,10.60
2015,06,17,05,51,10.60
2015,06,17,05,52,10.60
2015,06,17,05,53,10.60
2015,06,17,05,54,10.60
2015,06,17,05,55,10.60
2015,06,17,05,56,10.60
2015,06,17,05,57,10.60
2015,06,17,05,58,10.60
2015,06,17,05,59,10.60
2015,06,17,06,00,10.60
2015,06,17,06,01,10.70
2015,06,17,06,02,10.70
2015,06,17,06,03,10.70
2015,06,17,06,04,10.70
2015,06,17,06,05,10.70
2015,06,17,06,06,10.70
2015,06,17,06,07,10.70
2015,06,17,06,08,10.70
2015,06,17,06,09,10.70
2015,06,17,06,10,10.70
2015,06,17,06,11,10.70
2015,06,17,06,12,10.70
2015,06,17,06,13,10.70
2015,06,17,06,14,10.70
2015,06,17,06,15,10.70
2015,06,17,06,16,10.70
2015,06,17,06,17,10.80
2015,06,17,06,18,10.80
2015,06,17,06,19,10.80
2015,06,17,06,20,10.80
2015,06,17,06,21,10.80
2015,06,17,06,22,10.80
2015,06,17,06,23,10.80
2015,06,17,06,24,10.80
2015,06,17,06,25,10.80
2015,06,17,06,26,10.90
2015,06,17,06,27,10.90
2015,06,17,06,28,10.90
2015,06,17,06,29,10.90
2015,06,17,06,30,10.90
2015,06,17,06,31,10.90
2015,06,17,06,32,10.90
2015,06,17,06,33,11.00
2015,06,17,06,34,11.00
2015,06,17,06,35,11.00
2015,06,17,06,36,11.10
2015,06,17,06,37,11.10
2015,06,17,06,38,11.10
2015,06,17,06,39,11.10
2015,06,17,06,40,11.20
2015,06,17,06,41,11.20
2015,06,17,06,42,11.20
2015,06,17,06,43,11.30
2015,06,17,06,44,11.30
2015,06,17,06,45,11.30
2015,06,17,06,46,11.40
2015,06,17,06,47,11.40
2015,06,17,06,48,11.40
2015,06,17,06,49,11.50
2015,06,17,06,50,11.50
2015,06,17,06,51,11.60
2015,06,17,06,52,11.60
2015,06,17,06,53,11.60
2015,06,17,06,54,11.60
2015,06,17,06,55,11.70
2015,06,17,06,56,11.70
2015,06,17,06,57,11.80
2015,06,17,06,58,11.90
2015,06,17,06,59,12.00
2015,06,17,07,00,12.00
2015,06,17,07,01,12.10
2015,06,17,07,02,12.20
2015,06,17,07,03,12.20
2015,06,17,07,04,12.30
2015,06,17,07,05,12.30
2015,06,17,07,06,12.30
2015,06,17,07,07,12.40
2015,06,17,07,08,12.40
2015,06,17,07,09,12.50
2015,06,17,07,10,12.50
2015,06,17,07,11,12.60
2015,06,17,07,12,12.60
2015,06,17,07,13,12.60
2015,06,17,07,14,12.70
2015,06,17,07,15,12.70
2015,06,17,07,16,12.80
2015,06,17,07,17,12.80
2015,06,17,07,18,12.90
2015,06,17,07,19,12.90
2015,06,17,07,20,12.90
2015,06,17,07,21,13.00
2015,06,17,07,22,13.00
2015,06,17,07,23,13.10
2015,06,17,07,24,13.10
2015,06,17,07,25,13.20
2015,06,17,07,26,13.20
2015,06,17,07,27,13.30
2015,06,17,07,28,13.30
2015,06,17,07,29,13.30
2015,06,17,07,30,13.40
2015,06,17,07,31,13.40
2015,06,17,07,32,13.50
2015,06,17,07,33,13.50
2015,06,17,07,34,13.50
2015,06,17,07,35,13.60
2015,06,17,07,36,13.60
2015,06,17,07,37,13.60
2015,06,17,07,38,13.60
2015,06,17,07,39,13.70
2015,06,17,07,40,13.70
2015,06,17,07,41,13.70
2015,06,17,07,42,13.70
2015,06,17,07,43,13.70
2015,06,17,07,44,13.70
2015,06,17,07,45,13.80
2015,06,17,07,46,13.80
2015,06,17,07,47,13.80
2015,06,17,07,48,13.90
2015,06,17,07,49,13.90
2015,06,17,07,50,14.00
2015,06,17,07,51,14.10
2015,06,17,07,52,14.10
2015,06,17,07,53,14.20
2015,06,17,07,54,14.20
2015,06,17,07,55,14.30
2015,06,17,07,56,14.30
2015,06,17,07,57,14.40
2015,06,17,07,58,14.50
2015,06,17,07,59,14.50
2015,06,17,08,00,14.60
2015,06,17,08,01,14.60
2015,06,17,08,02,14.70
2015,06,17,08,03,14.70
2015,06,17,08,04,14.70
2015,06,17,08,05,14.80
2015,06,17,08,06,14.80
2015,06,17,08,07,14.90
2015,06,17,08,08,14.90
2015,06,17,08,09,15.00
2015,06,17,08,10,15.00
2015,06,17,08,11,15.10
2015,06,17,08,12,15.10
2015,06,17,08,13,15.20
2015,06,17,08,14,15.20
2015,06,17,08,15,15.20
2015,06,17,08,16,15.20
2015,06,17,08,17,15.30
2015,06,17,08,18,15.30
2015,06,17,08,19,15.30
2015,06,17,08,20,15.30
2015,06,17,08,21,15.40
2015,06,17,08,22,15.40
2015,06,17,08,23,15.50
2015,06,17,08,24,15.50
2015,06,17,08,25,15.60
2015,06,17,08,26,15.60
2015,06,17,08,27,15.70
2015,06,17,08,28,15.70
2015,06,17,08,29,15.70
2015,06,17,08,30,15.80
2015,06,17,08,31,15.80
2015,06,17,08,32,15.80
2015,06,17,08,33,15.80
2015,06,17,08,34,15.80
2015,06,17,08,35,15.80
2015,06,17,08,36,15.80
2015,06,17,08,37,15.80
2015,06,17,08,38,15.80
2015,06,17,08,39,15.80
2015,06,17,08,40,15.80
2015,06,17,08,41,15.80
2015,06,17,08,42,15.80
2015,06,17,08,43,15.80
2015,06,17,08,44,15.80
2015,06,17,08,45,15.80
2015,06,17,08,46,15.80
2015,06,17,08,47,15.80
2015,06,17,08,48,15.90
2015,06,17,08,49,15.90
2015,06,17,08,50,15.90
2015,06,17,08,51,15.90
2015,06,17,08,52,15.90
2015,06,17,08,53,16.00
2015,06,17,08,54,16.00
2015,06,17,08,55,16.10
2015,06,17,08,56,16.10
2015,06,17,08,57,16.20
2015,06,17,08,58,16.20
2015,06,17,08,59,16.30
2015,06,17,09,00,16.30
2015,06,17,09,01,16.40
2015,06,17,09,02,16.40
2015,06,17,09,03,16.50
2015,06,17,09,04,16.60
2015,06,17,09,05,16.60
2015,06,17,09,06,16.60
2015,06,17,09,07,16.60
2015,06,17,09,08,16.60
2015,06,17,09,09,16.70
2015,06,17,09,10,16.70
2015,06,17,09,11,16.70
2015,06,17,09,12,16.60
2015,06,17,09,13,16.60
2015,06,17,09,14,16.60
2015,06,17,09,15,16.60
2015,06,17,09,16,16.60
2015,06,17,09,17,16.60
2015,06,17,09,18,16.60
2015,06,17,09,19,16.60
2015,06,17,09,20,16.60
2015,06,17,09,21,16.70
2015,06,17,09,22,16.70
2015,06,17,09,23,16.80
2015,06,17,09,24,16.80
2015,06,17,09,25,16.90
2015,06,17,09,26,17.00
2015,06,17,09,27,17.10
2015,06,17,09,28,17.10
2015,06,17,09,29,17.20
2015,06,17,09,30,17.30
2015,06,17,09,31,17.30
2015,06,17,09,32,17.40
2015,06,17,09,33,17.40
2015,06,17,09,34,17.40
2015,06,17,09,35,17.50
2015,06,17,09,36,17.50
2015,06,17,09,37,17.60
2015,06,17,09,38,17.60
2015,06,17,09,39,17.60
2015,06,17,09,40,17.70
2015,06,17,09,41,17.70
2015,06,17,09,42,17.70
2015,06,17,09,43,17.70
2015,06,17,09,44,17.70
2015,06,17,09,45,17.70
2015,06,17,09,46,17.70
2015,06,17,09,47,17.70
2015,06,17,09,48,17.70
2015,06,17,09,49,17.70
2015,06,17,09,50,17.70
2015,06,17,09,51,17.70
2015,06,17,09,52,17.80
2015,06,17,09,53,17.80
2015,06,17,09,54,17.90
2015,06,17,09,55,18.00
2015,06,17,09,56,18.20
2015,06,17,09,57,18.20
2015,06,17,09,58,18.30
2015,06,17,09,59,18.30
2015,06,17,10,00,18.30
2015,06,17,10,01,18.30
2015,06,17,10,02,18.30
2015,06,17,10,03,18.30
2015,06,17,10,04,18.30
2015,06,17,10,05,18.20
2015,06,17,10,06,18.10
2015,06,17,10,07,18.10
2015,06,17,10,08,18.10
2015,06,17,10,09,18.10
2015,06,17,10,10,18.10
2015,06,17,10,11,18.10
2015,06,17,10,12,18.20
2015,06,17,10,13,18.20
2015,06,17,10,14,18.20
2015,06,17,10,15,18.30
2015,06,17,10,16,18.30
2015,06,17,10,17,18.30
2015,06,17,10,18,18.40
2015,06,17,10,19,18.40
2015,06,17,10,20,18.40
2015,06,17,10,21,18.50
2015,06,17,10,22,18.50
2015,06,17,10,23,18.40
2015,06,17,10,24,18.40
2015,06,17,10,25,18.40
2015,06,17,10,26,18.40
2015,06,17,10,27,18.50
2015,06,17,10,28,18.60
2015,06,17,10,29,18.60
2015,06,17,10,30,18.70
2015,06,17,10,31,18.80
2015,06,17,10,32,18.80
2015,06,17,10,33,18.90
2015,06,17,10,34,19.00
2015,06,17,10,35,19.00
2015,06,17,10,36,18.80
2015,06,17,10,37,18.80
2015,06,17,10,38,18.70
2015,06,17,10,39,18.70
2015,06,17,10,40,18.70
2015,06,17,10,41,18.70
2015,06,17,10,42,18.70
2015,06,17,10,43,18.70
2015,06,17,10,44,18.80
2015,06,17,10,45,18.80
2015,06,17,10,46,18.90
2015,06,17,10,47,19.10
2015,06,17,10,48,19.20
2015,06,17,10,49,19.30
2015,06,17,10,50,19.30
2015,06,17,10,51,19.30
2015,06,17,10,52,19.30
2015,06,17,10,53,19.40
2015,06,17,10,54,19.40
2015,06,17,10,55,19.40
2015,06,17,10,56,19.40
2015,06,17,10,57,19.40
2015,06,17,10,58,19.40
2015,06,17,10,59,19.30
2015,06,17,11,00,19.20
2015,06,17,11,01,19.20
2015,06,17,11,02,19.20
2015,06,17,11,03,19.20
2015,06,17,11,04,19.30
2015,06,17,11,05,19.30
2015,06,17,11,06,19.40
2015,06,17,11,07,19.50
2015,06,17,11,08,19.60
2015,06,17,11,09,19.70
2015,06,17,11,10,19.70
2015,06,17,11,11,19.70
2015,06,17,11,12,19.70
2015,06,17,11,13,19.70
2015,06,17,11,14,19.70
2015,06,17,11,15,19.70
2015,06,17,11,16,19.70
2015,06,17,11,17,19.60
2015,06,17,11,18,19.50
2015,06,17,11,19,19.40
2015,06,17,11,20,19.40
2015,06,17,11,21,19.40
2015,06,17,11,22,19.40
2015,06,17,11,23,19.30
2015,06,17,11,24,19.30
2015,06,17,11,25,19.30
2015,06,17,11,26,19.20
2015,06,17,11,27,19.10
2015,06,17,11,28,19.10
2015,06,17,11,29,19.00
2015,06,17,11,30,18.90
2015,06,17,11,31,18.80
2015,06,17,11,32,18.80
2015,06,17,11,33,18.80
2015,06,17,11,34,18.90
2015,06,17,11,35,18.90
2015,06,17,11,36,18.90
2015,06,17,11,37,19.00
2015,06,17,11,38,19.00
2015,06,17,11,39,19.10
2015,06,17,11,40,19.10
2015,06,17,11,41,19.10
2015,06,17,11,42,19.10
2015,06,17,11,43,19.10
2015,06,17,11,44,19.10
2015,06,17,11,45,19.20
2015,06,17,11,46,19.30
2015,06,17,11,47,19.50
2015,06,17,11,48,19.60
2015,06,17,11,49,19.70
2015,06,17,11,50,19.80
2015,06,17,11,51,19.80
2015,06,17,11,52,19.70
2015,06,17,11,53,19.70
2015,06,17,11,54,19.70
2015,06,17,11,55,19.60
2015,06,17,11,56,19.60
2015,06,17,11,57,19.50
2015,06,17,11,58,19.40
2015,06,17,11,59,19.40
2015,06,17,12,00,19.40
2015,06,17,12,01,19.30
2015,06,17,12,02,19.30
2015,06,17,12,03,19.10
2015,06,17,12,04,19.00
2015,06,17,12,05,18.90
2015,06,17,12,06,18.80
2015,06,17,12,07,18.80
2015,06,17,12,08,18.90
2015,06,17,12,09,18.90
2015,06,17,12,10,18.90
2015,06,17,12,11,19.00
2015,06,17,12,12,19.00
2015,06,17,12,13,19.20
2015,06,17,12,14,19.30
2015,06,17,12,15,19.40
2015,06,17,12,16,19.40
2015,06,17,12,17,19.50
2015,06,17,12,18,19.50
2015,06,17,12,19,19.50
2015,06,17,12,20,19.50
2015,06,17,12,21,19.60
2015,06,17,12,22,19.60
2015,06,17,12,23,19.60
2015,06,17,12,24,19.60
2015,06,17,12,25,19.60
2015,06,17,12,26,19.70
2015,06,17,12,27,19.70
2015,06,17,12,28,19.60
2015,06,17,12,29,19.50
2015,06,17,12,30,19.50
2015,06,17,12,31,19.50
2015,06,17,12,32,19.60
2015,06,17,12,33,19.60
2015,06,17,12,34,19.60
2015,06,17,12,35,19.50
2015,06,17,12,36,19.50
2015,06,17,12,37,19.50
2015,06,17,12,38,19.60
2015,06,17,12,39,19.70
2015,06,17,12,40,19.70
2015,06,17,12,41,19.80
2015,06,17,12,42,19.80
2015,06,17,12,43,19.70
2015,06,17,12,44,19.60
2015,06,17,12,45,19.60
2015,06,17,12,46,19.50
2015,06,17,12,47,19.40
2015,06,17,12,48,19.40
2015,06,17,12,49,19.40
2015,06,17,12,50,19.40
2015,06,17,12,51,19.50
2015,06,17,12,52,19.50
2015,06,17,12,53,19.60
2015,06,17,12,54,19.70
2015,06,17,12,55,19.80
2015,06,17,12,56,19.80
2015,06,17,12,57,19.90
2015,06,17,12,58,20.00
2015,06,17,12,59,20.00
2015,06,17,13,00,20.00
2015,06,17,13,01,20.00
2015,06,17,13,02,20.00
2015,06,17,13,03,20.00
2015,06,17,13,04,19.90
2015,06,17,13,05,19.90
2015,06,17,13,06,19.90
2015,06,17,13,07,19.90
2015,06,17,13,08,20.00
2015,06,17,13,09,20.10
2015,06,17,13,10,20.20
2015,06,17,13,11,20.30
2015,06,17,13,12,20.30
2015,06,17,13,13,20.40
2015,06,17,13,14,20.50
2015,06,17,13,15,20.60
2015,06,17,13,16,20.80
2015,06,17,13,17,21.00
2015,06,17,13,18,21.20
2015,06,17,13,19,21.40
2015,06,17,13,20,21.40
2015,06,17,13,21,21.40
2015,06,17,13,22,21.40
2015,06,17,13,23,21.40
2015,06,17,13,24,21.50
2015,06,17,13,25,21.60
2015,06,17,13,26,21.70
2015,06,17,13,27,21.60
2015,06,17,13,28,21.60
2015,06,17,13,29,21.60
2015,06,17,13,30,21.60
2015,06,17,13,31,21.70
2015,06,17,13,32,21.70
2015,06,17,13,33,21.70
2015,06,17,13,34,21.60
2015,06,17,13,35,21.60
2015,06,17,13,36,21.60
2015,06,17,13,37,21.60
2015,06,17,13,38,21.60
2015,06,17,13,39,21.60
2015,06,17,13,40,21.50
2015,06,17,13,41,21.50
2015,06,17,13,42,21.40
2015,06,17,13,43,21.30
2015,06,17,13,44,21.20
2015,06,17,13,45,21.20
2015,06,17,13,46,21.10
2015,06,17,13,47,21.00
2015,06,17,13,48,20.90
2015,06,17,13,49,20.90
2015,06,17,13,50,20.80
2015,06,17,13,51,20.90
2015,06,17,13,52,21.00
2015,06,17,13,53,21.10
2015,06,17,13,54,21.10
2015,06,17,13,55,21.20
2015,06,17,13,56,21.20
2015,06,17,13,57,21.20
2015,06,17,13,58,21.30
2015,06,17,13,59,21.30
2015,06,17,14,00,21.20
2015,06,17,14,01,21.20
2015,06,17,14,02,21.30
2015,06,17,14,03,21.30
2015,06,17,14,04,21.40
2015,06,17,14,05,21.40
2015,06,17,14,06,21.40
2015,06,17,14,07,21.40
2015,06,17,14,08,21.40
2015,06,17,14,09,21.30
2015,06,17,14,10,21.30
2015,06,17,14,11,21.40
2015,06,17,14,12,21.40
2015,06,17,14,13,21.40
2015,06,17,14,14,21.40
2015,06,17,14,15,21.50
2015,06,17,14,16,21.60
2015,06,17,14,17,21.70
2015,06,17,14,18,21.80
2015,06,17,14,19,21.90
2015,06,17,14,20,21.90
2015,06,17,14,21,21.90
2015,06,17,14,22,21.90
2015,06,17,14,23,21.80
2015,06,17,14,24,21.80
2015,06,17,14,25,21.70
2015,06,17,14,26,21.60
2015,06,17,14,27,21.50
2015,06,17,14,28,21.50
2015,06,17,14,29,21.40
2015,06,17,14,30,21.50
2015,06,17,14,31,21.40
2015,06,17,14,32,21.50
2015,06,17,14,33,21.50
2015,06,17,14,34,21.60
2015,06,17,14,35,21.70
2015,06,17,14,36,21.80
2015,06,17,14,37,21.80
2015,06,17,14,38,21.80
2015,06,17,14,39,21.90
2015,06,17,14,40,21.90
2015,06,17,14,41,22.00
2015,06,17,14,42,22.00
2015,06,17,14,43,22.00
2015,06,17,14,44,22.00
2015,06,17,14,45,22.00
2015,06,17,14,46,22.00
2015,06,17,14,47,22.00
2015,06,17,14,48,22.00
2015,06,17,14,49,21.90
2015,06,17,14,50,21.90
2015,06,17,14,51,21.90
2015,06,17,14,52,21.90
2015,06,17,14,53,21.80
2015,06,17,14,54,21.80
2015,06,17,14,55,21.90
2015,06,17,14,56,21.90
2015,06,17,14,57,21.90
2015,06,17,14,58,21.90
2015,06,17,14,59,22.00
2015,06,17,15,00,22.10
2015,06,17,15,01,22.00
2015,06,17,15,02,22.00
2015,06,17,15,03,21.90
2015,06,17,15,04,21.90
2015,06,17,15,05,21.90
2015,06,17,15,06,22.00
2015,06,17,15,07,22.00
2015,06,17,15,08,22.10
2015,06,17,15,09,22.20
2015,06,17,15,10,22.30
2015,06,17,15,11,22.40
2015,06,17,15,12,22.50
2015,06,17,15,13,22.50
2015,06,17,15,14,22.60
2015,06,17,15,15,22.60
2015,06,17,15,16,22.50
2015,06,17,15,17,22.50
2015,06,17,15,18,22.50
2015,06,17,15,19,22.50
2015,06,17,15,20,22.60
2015,06,17,15,21,22.60
2015,06,17,15,22,22.60
2015,06,17,15,23,22.60
2015,06,17,15,24,22.80
2015,06,17,15,25,22.80
2015,06,17,15,26,22.80
2015,06,17,15,27,22.80
2015,06,17,15,28,22.70
2015,06,17,15,29,22.60
2015,06,17,15,30,22.60
2015,06,17,15,31,22.60
2015,06,17,15,32,22.60
2015,06,17,15,33,22.60
2015,06,17,15,34,22.70
2015,06,17,15,35,22.80
2015,06,17,15,36,22.80
2015,06,17,15,37,22.80
2015,06,17,15,38,22.70
2015,06,17,15,39,22.70
2015,06,17,15,40,22.70
2015,06,17,15,41,22.70
2015,06,17,15,42,22.70
2015,06,17,15,43,22.70
2015,06,17,15,44,22.70
2015,06,17,15,45,22.60
2015,06,17,15,46,22.60
2015,06,17,15,47,22.70
2015,06,17,15,48,22.70
2015,06,17,15,49,22.80
2015,06,17,15,50,22.80
2015,06,17,15,51,22.70
2015,06,17,15,52,22.70
2015,06,17,15,53,22.80
2015,06,17,15,54,22.80
2015,06,17,15,55,22.80
2015,06,17,15,56,22.80
2015,06,17,15,57,22.80
2015,06,17,15,58,22.80
2015,06,17,15,59,22.90
2015,06,17,16,00,22.90
2015,06,17,16,01,23.00
2015,06,17,16,02,23.00
2015,06,17,16,03,23.00
2015,06,17,16,04,23.00
2015,06,17,16,05,23.00
2015,06,17,16,06,23.10
2015,06,17,16,07,23.10
2015,06,17,16,08,23.20
2015,06,17,16,09,23.10
2015,06,17,16,10,23.10
2015,06,17,16,11,23.00
2015,06,17,16,12,23.00
2015,06,17,16,13,22.90
2015,06,17,16,14,22.80
2015,06,17,16,15,22.70
2015,06,17,16,16,22.60
2015,06,17,16,17,22.60
2015,06,17,16,18,22.50
2015,06,17,16,19,22.50
2015,06,17,16,20,22.40
2015,06,17,16,21,22.40
2015,06,17,16,22,22.40
2015,06,17,16,23,22.30
2015,06,17,16,24,22.20
2015,06,17,16,25,22.30
2015,06,17,16,26,22.40
2015,06,17,16,27,22.50
2015,06,17,16,28,22.50
2015,06,17,16,29,22.60
2015,06,17,16,30,22.70
2015,06,17,16,31,22.70
2015,06,17,16,32,22.70
2015,06,17,16,33,22.60
2015,06,17,16,34,22.60
2015,06,17,16,35,22.70
2015,06,17,16,36,22.70
2015,06,17,16,37,22.70
2015,06,17,16,38,22.80
2015,06,17,16,39,22.80
2015,06,17,16,40,22.70
2015,06,17,16,41,22.60
2015,06,17,16,42,22.60
2015,06,17,16,43,22.60
2015,06,17,16,44,22.70
2015,06,17,16,45,22.70
2015,06,17,16,46,22.70
2015,06,17,16,47,22.70
2015,06,17,16,48,22.80
2015,06,17,16,49,22.80
2015,06,17,16,50,22.80
2015,06,17,16,51,22.80
2015,06,17,16,52,22.80
2015,06,17,16,53,22.80
2015,06,17,16,54,22.80
2015,06,17,16,55,22.80
2015,06,17,16,56,22.90
2015,06,17,16,57,22.90
2015,06,17,16,58,22.90
2015,06,17,16,59,23.00
2015,06,17,17,00,23.10
2015,06,17,17,01,23.10
2015,06,17,17,02,23.20
2015,06,17,17,03,23.30
2015,06,17,17,04,23.30
2015,06,17,17,05,23.40
2015,06,17,17,06,23.40
2015,06,17,17,07,23.40
2015,06,17,17,08,23.40
2015,06,17,17,09,23.40
2015,06,17,17,10,23.40
2015,06,17,17,11,23.40
2015,06,17,17,12,23.40
2015,06,17,17,13,23.30
2015,06,17,17,14,23.30
2015,06,17,17,15,23.30
2015,06,17,17,16,23.30
2015,06,17,17,17,23.30
2015,06,17,17,18,23.30
2015,06,17,17,19,23.30
2015,06,17,17,20,23.20
2015,06,17,17,21,23.20